Probability
6 13 45 45 48 48 48 48 42 39 32 26 26 26 26 16 13 13 13 13 10 13 13 13 13 16 16 10 10 3 6 6 6 0 6 3 0 0 0 3 6 0 6
10 29 45 48 45 45 45 45 42 39 35 29 23 19 23 23 16 13 13 13 16 13 3 10 6 6 3 3 3 6 6 6 3 0 0 0 3 0 3 3 3 0 3
19 32 35 48 52 48 48 48 45 39 35 32 29 26 19 16 19 19 13 13 10 6 0 0 0 3 6 6 3 3 0 3 10 3 0 0 0 0 3 3 0 0 3
26 32 35 42 42 42 42 35 39 35 32 32 29 26 16 16 19 26 16 16 10 6 3 0 0 0 0 3 6 3 3 3 3 0 0 0 0 0 3 3 0 0 0
26 35 39 39 35 35 39 39 39 39 35 35 29 23 23 23 19 16 16 13 13 10 6 3 3 0 0 0 0 3 0 3 3 0 0 0 0 0 0 0 0 0 0
23 29 35 35 35 35 35 39 39 39 32 32 29 32 23 19 19 13 13 10 6 3 0 3 3 3 3 3 0 0 0 3 0 0 0 0 0 0 0 3 0 0 0
26 29 32 35 35 32 32 35 35 32 32 26 26 26 23 19 16 16 16 10 0 0 0 0 0 0 3 3 3 3 0 0 0 0 0 0 0 0 0 3 0 0 3
29 29 29 35 35 35 32 32 32 29 26 26 23 23 23 16 16 6 13 10 6 3 3 0 0 3 6 0 0 0 3 0 0 0 0 0 0 0 3 6 6 3 6
23 26 26 26 26 26 26 26 23 26 26 26 26 23 23 23 13 13 6 6 6 6 3 6 3 3 3 6 3 3 0 0 0 0 0 0 0 0 0 0 3 6 10
19 23 23 23 23 23 23 23 23 23 26 26 23 19 16 13 13 10 10 6 6 6 3 3 3 3 3 3 3 0 0 0 0 0 0 0 0 0 3 3 0 3 0
16 16 16 16 16 16 13 13 13 16 16 16 13 10 10 6 3 3 0 3 6 3 3 0 0 0 0 0 0 0 0 0 0 0 0 0 0 3 6 6 3 0 0
10 10 10 10 13 13 13 13 13 13 13 10 10 10 3 0 0 0 0 0 0 0 0 0 0 0 0 0 0 0 0 0 0 0 0 0 0 3 3 6 6 6 6
6 6 6 6 10 10 10 10 10 10 3 3 6 3 3 0 0 0 0 0 0 0 0 0 0 0 0 0 0 0 0 0 0 0 0 0 0 0 3 3 3 6 3
3 6 6 6 6 3 3 3 6 6 3 0 0 3 3 0 0 0 0 0 0 0 0 0 0 0 0 0 0 0 0 0 0 0 0 0 0 0 3 3 0 0 0
3 3 3 6 0 3 3 3 3 3 0 0 0 0 0 0 0 0 0 0 0 0 0 0 0 0 0 0 0 0 0 0 0 0 0 0 0 0 0 3 3 3 3
0 0 0 0 0 0 3 3 0 0 0 0 0 0 0 0 0 0 0 0 0 0 0 0 0 0 0 0 0 0 0 0 0 0 0 0 0 0 0 0 0 0 0
0 0 0 0 0 0 0 0 0 0 0 0 0 0 0 0 0 0 0 0 0 0 0 0 0 0 0 0 0 0 0 0 0 0 0 0 0 0 0 0 0 0 0
0 0 0 0 0 0 0 0 0 0 0 0 0 0 0 0 0 0 0 0 0 0 0 0 0 0 0 0 0 0 0 0 0 0 0 0 0 0 0 0 0 0 0
0 0 0 0 0 0 0 0 0 0 0 0 0 0 0 0 0 0 0 0 0 0 0 0 0 0 0 0 0 0 0 0 0 0 0 0 0 0 0 0 0 0 0
0 0 0 0 0 0 0 0 0 0 0 0 0 0 0 0 0 0 0 0 0 0 0 0 0 0 0 0 0 0 0 0 0 0 0 0 0 0 0 0 0 0 0
0 0 0 0 0 0 0 0 0 0 0 0 0 0 0 0 0 0 0 0 0 0 0 0 0 0 0 0 0 0 0 0 0 0 0 0 0 0 0 0 0 0 0
0 0 0 0 0 0 0 0 0 0 0 0 0 0 0 0 0 0 0 0 0 0 0 0 0 0 0 0 0 0 0 0 0 0 0 0 0 0 0 0 0 0 0
0 0 0 0 0 0 0 0 0 0 0 0 0 0 0 0 0 0 0 0 0 0 0 0 0 0 0 0 0 0 0 0 0 0 0 0 0 0 0 0 0 0 0
0 0 0 0 0 0 0 0 0 0 0 0 0 0 0 0 0 0 0 0 0 0 0 0 0 0 0 0 0 0 0 0 0 0 0 0 0 0 0 0 0 0 0
0 0 0 0 0 0 0 0 0 0 0 0 0 0 0 0 0 0 0 0 0 0 0 0 0 0 0 0 0 0 0 0 0 0 0 0 0 0 0 0 0 0 0
0 0 0 0 0 0 0 0 0 0 0 0 0 0 0 0 0 0 0 0 0 0 0 0 0 0 0 0 0 0 0 0 0 0 0 0 0 0 0 0 0 0 0
Height
5868 5869 5869 5870 5870 5871 5871 5872 5872 5872 5872 5872 5872 5872 5871 5871 5871 5871 5871 5871 5871 5870 5870 5870 5870 5870 5870 5870 5870 5870 5870 5870 5869 5869 5869 5869 5869 5869 5869 5869 5869 5869 5868
5866 5867 5867 5868 5868 5869 5869 5870 5870 5870 5870 5870 5870 5870 5870 5869 5869 5869 5869 5868 5868 5868 5868 5868 5868 5867 5867 5867 5867 5867 5867 5867 5867 5867 5867 5866 5866 5866 5866 5866 5866 5866 5866
5863 5864 5865 5866 5866 5867 5867 5868 5868 5868 5868 5868 5868 5868 5868 5867 5867 5867 5866 5866 5866 5865 5865 5865 5865 5864 5864 5864 5864 5864 5864 5863 5863 5863 5863 5863 5863 5863 5863 5863 5863 5862 5862
5861 5862 5862 5863 5864 5864 5865 5865 5865 5866 5866 5866 5866 5866 5865 5865 5865 5864 5864 5863 5863 5862 5862 5862 5862 5861 5861 5861 5860 5860 5860 5860 5860 5860 5860 5859 5859 5859 5859 5859 5859 5859 5859
5857 5858 5859 5860 5861 5861 5862 5862 5863 5863 5863 5863 5863 5863 5863 5862 5862 5861 5861 5860 5860 5859 5859 5858 5858 5858 5857 5857 5857 5856 5856 5856 5856 5856 5855 5855 5855 5855 5855 5855 5855 5855 5855
5854 5855 5856 5857 5858 5858 5859 5859 5860 5860 5860 5860 5860 5860 5860 5859 5859 5858 5858 5857 5856 5856 5855 5855 5854 5854 5853 5853 5852 5852 5852 5851 5851 5851 5851 5851 5851 5851 5850 5850 5850 5850 5850
5850 5851 5852 5853 5854 5855 5855 5856 5856 5857 5857 5857 5857 5857 5856 5856 5855 5855 5854 5853 5853 5852 5851 5851 5850 5849 5849 5848 5848 5847 5847 5847 5847 5846 5846 5846 5846 5846 5846 5845 5845 5845 5845
5846 5847 5848 5849 5850 5851 5852 5852 5853 5853 5853 5853 5853 5853 5853 5852 5851 5851 5850 5849 5848 5848 5847 5846 5846 5845 5844 5844 5843 5843 5842 5842 5841 5841 5841 5841 5841 5840 5840 5840 5840 5840 5840
5841 5843 5844 5845 5846 5847 5848 5848 5849 5849 5849 5849 5849 5849 5849 5848 5848 5847 5846 5845 5844 5843 5842 5842 5841 5840 5840 5839 5838 5838 5837 5836 5836 5836 5835 5835 5835 5835 5834 5834 5834 5834 5834
5837 5838 5839 5840 5841 5842 5843 5844 5844 5845 5845 5845 5845 5845 5844 5844 5843 5843 5842 5841 5840 5839 5838 5837 5836 5835 5834 5833 5833 5832 5831 5831 5830 5830 5829 5829 5829 5829 5828 5828 5828 5828 5828
5832 5833 5834 5835 5837 5838 5839 5839 5840 5840 5840 5840 5840 5840 5840 5839 5839 5838 5837 5836 5835 5834 5833 5832 5831 5830 5829 5828 5827 5826 5825 5825 5824 5823 5823 5822 5822 5822 5822 5821 5821 5821 5821
5827 5828 5829 5830 5832 5833 5834 5835 5835 5836 5836 5836 5836 5835 5835 5834 5834 5833 5832 5831 5830 5829 5827 5826 5825 5824 5823 5822 5821 5820 5819 5818 5817 5817 5816 5815 5815 5815 5814 5814 5814 5814 5814
5822 5823 5824 5825 5827 5828 5829 5830 5830 5831 5831 5831 5831 5830 5830 5829 5829 5828 5827 5826 5824 5823 5822 5821 5819 5818 5817 5816 5815 5813 5812 5811 5810 5810 5809 5808 5808 5807 5807 5807 5806 5806 5806
5816 5818 5819 5820 5822 5823 5824 5825 5825 5826 5826 5826 5825 5825 5825 5824 5823 5822 5821 5820 5818 5817 5816 5815 5813 5812 5811 5809 5808 5806 5805 5804 5803 5802 5801 5801 5800 5800 5799 5799 5798 5798 5798
5811 5813 5814 5816 5817 5818 5818 5819 5820 5820 5820 5820 5820 5820 5819 5818 5817 5816 5815 5814 5812 5811 5810 5808 5807 5805 5804 5803 5801 5799 5798 5797 5796 5795 5794 5793 5793 5792 5792 5791 5791 5790 5790
5806 5808 5809 5810 5811 5812 5813 5814 5814 5815 5815 5815 5814 5814 5813 5813 5811 5810 5809 5807 5806 5804 5803 5801 5800 5798 5797 5795 5793 5791 5790 5789 5788 5787 5787 5786 5785 5784 5784 5783 5782 5782 5782
5800 5802 5803 5805 5806 5807 5807 5808 5808 5809 5809 5809 5808 5808 5807 5806 5805 5804 5802 5800 5799 5797 5796 5794 5793 5791 5790 5788 5786 5784 5783 5782 5781 5780 5779 5778 5777 5776 5775 5775 5774 5773 5773
5794 5796 5797 5799 5800 5801 5801 5802 5802 5802 5802 5802 5802 5801 5800 5799 5799 5797 5795 5794 5792 5790 5789 5787 5786 5785 5783 5781 5779 5778 5776 5775 5774 5772 5771 5770 5769 5768 5767 5766 5765 5764 5763
5788 5790 5791 5792 5794 5794 5795 5795 5796 5796 5796 5796 5795 5795 5794 5793 5791 5790 5788 5787 5785 5783 5782 5781 5779 5777 5776 5774 5772 5770 5769 5767 5766 5765 5764 5762 5761 5760 5758 5757 5756 5754 5754
5782 5783 5785 5786 5787 5788 5788 5788 5789 5789 5789 5789 5789 5788 5787 5786 5784 5783 5781 5779 5778 5776 5774 5773 5772 5770 5768 5767 5765 5763 5761 5760 5758 5757 5755 5754 5752 5751 5749 5748 5747 5745 5744
5775 5777 5778 5779 5780 5781 5781 5781 5781 5782 5782 5782 5781 5781 5780 5778 5776 5775 5773 5772 5771 5769 5767 5765 5764 5762 5761 5759 5757 5756 5754 5752 5750 5748 5746 5745 5743 5741 5740 5738 5737 5736 5734
5769 5771 5772 5773 5774 5774 5774 5774 5774 5775 5775 5774 5774 5773 5772 5770 5769 5767 5766 5764 5763 5762 5760 5758 5756 5755 5753 5751 5749 5747 5746 5744 5742 5739 5737 5735 5733 5732 5730 5728 5727 5725 5724
5763 5764 5765 5766 5767 5767 5767 5767 5768 5767 5767 5767 5766 5765 5764 5763 5761 5760 5758 5757 5755 5754 5752 5750 5748 5746 5744 5742 5740 5738 5736 5734 5732 5730 5727 5725 5723 5721 5719 5718 5716 5714 5713
5756 5757 5758 5759 5760 5760 5760 5760 5760 5759 5759 5759 5758 5757 5756 5755 5753 5752 5751 5749 5747 5746 5744 5742 5739 5737 5735 5733 5731 5728 5726 5724 5722 5720 5718 5714 5712 5710 5708 5706 5704 5702 5701
5750 5751 5752 5752 5752 5753 5753 5753 5752 5752 5751 5750 5750 5749 5748 5747 5746 5744 5742 5741 5739 5737 5735 5732 5730 5728 5725 5723 5720 5718 5715 5713 5710 5708 5707 5704 5701 5698 5696 5694 5692 5690 5688
5743 5744 5745 5745 5745 5745 5745 5745 5745 5744 5743 5742 5742 5741 5740 5739 5737 5735 5733 5731 5729 5727 5725 5723 5720 5717 5715 5712 5709 5707 5704 5701 5698 5696 5694 5692 5689 5686 5683 5681 5678 5677 5675
Wind_Speed
10 10 9 8 8 8 8 7 7 7 7 8 8 8 9 10 10 11 11 12 12 12 12 12 12 12 13 13 13 13 13 13 13 13 13 13 14 14 14 14 14 14 14
12 11 11 10 10 10 9 9 9 9 9 9 9 10 10 11 11 12 13 13 14 14 14 14 14 14 14 15 15 15 15 16 16 16 16 16 16 16 16 16 16 16 16
13 13 13 12 12 12 11 11 11 11 11 11 11 11 12 12 12 13 13 14 15 15 15 15 16 16 16 17 17 17 17 18 18 18 18 18 18 18 18 18 18 18 18
15 14 14 14 14 13 13 12 12 12 12 12 12 13 13 14 14 14 15 15 15 16 16 17 17 18 18 19 19 19 19 19 19 19 20 20 20 20 20 20 20 20 20
17 16 16 15 15 15 14 14 14 14 14 14 15 15 15 16 16 16 16 16 16 17 18 19 19 20 20 20 20 20 21 21 21 21 21 21 21 21 21 21 21 21 21
18 18 18 17 17 16 16 16 16 15 16 16 16 16 16 16 17 17 17 18 18 19 19 19 20 20 21 21 21 22 22 22 22 22 22 22 22 22 22 22 23 23 23
20 20 19 19 18 18 18 17 17 17 17 17 17 17 17 17 17 18 18 19 19 19 19 20 20 21 22 22 23 23 24 24 24 24 24 24 24 24 24 24 24 25 24
21 21 21 20 20 20 19 19 18 18 18 18 18 18 17 18 18 18 19 19 20 20 21 21 22 22 23 23 24 24 25 25 26 26 26 26 27 27 27 27 26 26 27
22 22 22 22 21 21 20 20 19 19 19 19 18 18 19 19 19 20 20 20 21 21 22 22 23 24 24 25 26 26 27 27 28 28 28 28 28 28 28 28 28 28 29
24 23 23 23 22 22 22 21 20 20 20 20 20 20 21 21 21 21 21 22 22 22 23 24 25 25 26 26 27 27 28 28 28 29 29 30 30 30 30 30 30 30 30
25 25 24 24 24 23 23 22 21 21 21 21 21 22 21 22 22 22 23 23 23 24 24 25 25 26 27 27 28 29 29 30 30 30 30 31 31 32 32 32 32 32 32
25 25 25 25 25 24 24 23 23 22 22 22 23 23 22 23 23 24 24 25 25 25 25 26 27 27 28 28 29 30 30 30 31 31 31 32 32 32 33 33 34 34 34
24 24 24 24 24 24 24 24 24 24 23 24 23 24 24 25 25 26 26 26 26 27 27 27 28 28 29 30 30 31 31 31 31 32 32 33 33 33 33 33 34 34 35
24 24 25 24 24 24 24 25 25 25 24 24 24 25 25 26 26 27 27 28 28 28 28 29 30 30 31 31 31 32 32 31 31 31 32 33 33 33 33 33 33 34 34
25 25 25 25 25 25 25 25 26 26 25 25 26 26 27 27 28 28 28 28 29 30 31 31 32 32 33 32 32 32 32 31 31 31 31 32 32 33 33 33 33 34 35
26 25 26 25 26 26 26 27 27 27 27 27 27 28 28 28 28 28 29 30 31 32 33 33 33 33 32 31 31 31 31 31 31 31 31 31 32 33 33 33 34 34 35
28 27 27 27 27 27 28 28 29 29 28 28 28 29 30 29 29 30 31 32 33 33 33 33 33 32 31 31 31 31 30 30 30 31 32 32 32 33 33 34 35 36 36
28 28 28 28 28 28 29 29 29 29 29 29 29 30 30 29 30 31 32 33 33 33 32 32 32 32 32 31 31 31 31 30 31 32 32 33 33 34 34 35 36 37 37
29 29 29 29 29 30 30 30 31 30 30 30 30 30 30 31 32 33 33 33 33 33 33 33 33 32 32 32 32 32 32 31 32 33 33 34 35 35 36 36 37 37 38
29 30 30 30 30 30 31 32 32 31 31 31 31 31 32 33 34 34 34 34 34 34 33 33 33 33 33 34 34 33 33 33 34 34 35 36 36 37 38 38 38 38 38
29 29 30 31 31 31 31 32 32 32 32 33 32 33 33 34 35 34 33 33 33 34 34 33 33 33 34 34 35 35 35 36 36 37 37 37 37 38 38 38 39 38 39
30 30 31 31 32 33 33 33 32 33 34 34 34 35 35 35 35 34 33 33 34 34 34 34 35 36 36 37 37 37 37 37 38 39 39 39 39 39 40 40 40 40 41
32 32 32 33 33 34 34 34 34 35 35 35 36 36 35 35 34 34 34 34 35 35 36 36 37 38 38 39 39 40 40 40 40 40 41 41 41 41 42 42 43 43 43
33 33 33 33 33 33 34 34 35 36 36 36 36 36 35 35 35 35 35 36 36 36 37 37 37 38 39 40 41 41 42 43 42 42 43 43 44 44 44 44 45 45 45
32 33 34 34 34 34 34 35 35 36 36 36 37 35 35 36 36 36 36 37 38 38 39 40 40 41 41 42 42 43 43 44 44 44 44 45 45 46 46 47 47 47 47
31 32 32 33 33 34 34 34 35 36 36 36 35 34 34 35 35 36 37 38 39 40 41 41 42 43 44 44 44 45 45 46 46 47 47 47 47 48 48 49 49 49 49
Wind_Direction
263 266 269 271 272 277 283 288 291 295 300 303 306 309 310 310 310 309 308 307 305 304 302 301 300 299 300 300 299 298 296 295 293 291 289 287 284 283 282 281 280 279 279
261 263 265 267 269 272 278 284 286 289 292 297 300 304 307 308 308 308 306 305 303 301 299 297 296 295 295 296 295 295 295 292 291 289 288 287 285 284 282 281 279 279 279
260 262 263 265 267 270 275 279 282 284 288 291 295 299 302 304 306 306 305 304 302 300 298 296 295 294 293 293 293 292 291 292 289 288 287 286 284 282 281 280 279 278 277
257 259 260 263 266 270 274 276 279 283 285 289 292 296 299 300 302 302 303 302 301 298 296 294 294 293 291 290 290 290 289 288 289 287 286 285 283 282 281 279 279 278 277
254 257 259 262 265 269 271 273 277 280 284 287 290 293 294 296 297 297 298 298 298 297 296 294 292 291 291 289 288 288 288 288 287 287 285 284 283 282 280 279 278 277 277
253 254 257 260 263 266 268 272 275 279 283 286 289 291 292 293 294 295 295 295 295 295 295 294 292 291 290 289 288 287 287 286 286 285 284 283 282 281 280 279 278 277 276
252 254 256 258 260 264 266 269 274 278 282 285 288 290 292 293 293 294 295 295 294 293 292 292 292 291 290 289 288 287 287 286 285 284 283 282 281 280 279 278 277 276 275
252 254 256 257 260 262 265 268 272 277 281 284 287 288 290 293 294 294 295 294 293 292 292 291 291 290 289 288 288 287 286 285 284 283 282 280 280 279 278 277 276 275 275
252 254 255 257 259 261 264 267 271 275 279 281 284 286 288 291 292 293 294 294 294 293 292 291 290 290 290 288 287 286 285 284 284 282 281 280 279 278 278 277 276 275 274
252 253 255 256 257 259 263 266 270 272 275 278 281 284 286 288 290 292 293 294 294 293 292 291 291 290 290 289 287 285 285 285 284 283 282 280 278 278 277 276 276 275 274
252 253 255 256 257 259 263 265 268 270 273 276 280 283 285 288 290 291 292 293 294 293 293 292 291 290 290 289 288 286 285 284 283 283 282 281 280 278 277 276 275 275 274
251 253 254 255 257 258 261 264 267 270 272 276 279 282 284 287 288 290 291 291 292 292 292 292 292 292 291 290 289 288 286 285 283 283 282 282 281 279 277 276 275 275 274
250 252 253 254 256 257 259 263 267 269 272 275 278 280 283 285 287 288 289 289 290 291 291 290 290 291 292 291 290 289 287 286 284 283 282 281 281 280 279 278 277 276 274
248 250 251 252 255 256 259 263 265 268 271 274 276 279 283 285 286 287 287 288 289 290 290 290 290 291 292 291 291 289 288 286 285 283 283 282 280 280 280 279 277 276 276
247 249 251 253 255 257 260 263 265 267 270 273 276 278 281 283 285 286 287 287 287 289 290 291 291 291 291 291 291 289 287 285 285 284 283 282 281 280 280 279 278 277 276
246 248 249 253 256 258 260 262 264 267 269 271 275 279 281 284 285 286 287 287 288 289 291 292 292 292 292 292 292 291 289 287 286 285 284 283 282 281 280 280 279 278 277
246 248 250 253 256 258 260 262 264 267 270 272 275 278 281 283 284 286 287 288 289 290 291 291 291 291 292 292 292 291 290 287 287 285 284 284 283 283 281 280 279 278 277
246 250 253 255 256 258 261 263 265 268 271 273 276 278 280 282 284 287 288 288 288 289 290 290 292 293 293 293 293 292 289 287 285 285 284 284 283 283 283 282 280 279 278
249 251 253 255 257 259 262 264 267 269 271 274 277 279 281 283 286 288 288 288 288 289 289 289 291 292 293 293 293 292 289 288 288 286 285 284 284 283 284 283 282 280 279
250 252 253 255 258 261 264 266 268 270 272 275 277 278 280 283 286 288 288 288 288 289 289 289 290 291 291 291 292 291 289 288 287 286 285 285 285 284 283 283 282 281 279
252 253 254 256 258 262 266 269 269 270 272 274 276 278 281 284 285 287 288 287 287 288 288 289 289 290 291 291 291 291 290 289 287 286 285 285 285 285 284 283 282 281 280
254 255 257 258 261 264 266 269 270 272 274 275 277 280 281 284 285 285 286 287 288 288 288 288 289 290 290 291 291 290 290 289 288 287 286 285 284 284 284 284 282 280 279
254 256 259 261 263 265 266 268 270 273 274 276 278 281 282 284 285 285 286 287 287 287 288 289 289 289 290 290 290 289 289 289 288 288 287 286 284 284 284 282 281 280 279
257 259 261 262 263 265 267 270 273 275 276 277 279 281 282 283 285 285 286 287 287 288 289 290 291 291 291 290 290 289 289 289 289 288 288 286 285 283 282 281 281 280 279
260 261 264 265 265 266 269 272 274 277 277 278 279 280 281 282 284 285 287 287 288 289 291 292 291 291 292 291 290 290 290 289 288 288 287 287 286 285 283 282 280 279 278
262 263 265 267 267 268 271 272 274 277 278 279 278 279 281 284 286 287 288 289 290 291 292 292 292 292 292 291 291 290 290 289 288 288 287 286 286 285 284 283 281 280 278